St. Charles, IL

2:38 PM CDT on June 27, 2017 (GMT -0500)
Saint Charles County Smartt

Weather History for KSET - January, 2013

Change the Weather History Date:

Tuesday, January 1, 2013

  Actual Average (KSTL) Record (KSTL)
Temperature  
Mean Temperature 22 °F -  
Max Temperature 26 °F 36 °F 70 °F (1965)
Min Temperature 15 °F 19 °F -10 °F (1974)
Degree Days  
Heating Degree Days 44    
Moisture  
Dew Point 15 °F    
Average Humidity 76    
Maximum Humidity 86    
Minimum Humidity 58    
Precipitation  
Precipitation 0.00 in - - ()
Sea Level Pressure  
Sea Level Pressure 30.22 in    
Wind  
Wind Speed 8 mph (North)    
Max Wind Speed 13 mph    
Max Gust Speed -    
Visibility 9 miles    
Events      
Averages and records for this station are not official NWS values.
T = Trace of Precipitation, MM = Missing Value Source: NWS Daily Summary

Daily Weather History Graph

Daily Weather History Graph

Search for Another Location

Airport or City:

Trip Planner

Search our weather history database for the weather conditions in past years. The results will help you decide how hot, cold, wet, or windy it might be!

Date:

Astronomy

Jan. 01, 2013 Rise Set
Actual Time 7:20 AM CST 4:50 PM CST
Civil Twilight 6:50 AM CST 5:20 PM CST
Nautical Twilight 6:17 AM CST 5:53 PM CST
Astronomical Twilight 5:44 AM CST 6:26 PM CST
Moon 9:19 PM CST (1/1) 9:35 AM CST (1/1)
Length of Visible Light 10h 29m
Length of Day
9h 30m
Waning Gibbous, 83% of the Moon is Illuminated
Jan 1
Waning Gibbous
Jan 4
Last Quarter
Jan 11
New
Jan 18
First Quarter
Jan 26
Full

Hourly Weather History & Observations

Time (CST) Temp. Windchill Dew Point Humidity Pressure Visibility Wind Dir Wind Speed Gust Speed Precip Events Conditions
12:43 AM 26.6 °F 17.5 °F 21.2 °F 80% 30.13 in 9.0 mi North 9.2 mph - N/A   Overcast
12:54 AM 26.1 °F 15.6 °F 19.9 °F 78% 30.15 in 10.0 mi North 11.5 mph - N/A   Overcast
1:54 AM 25.0 °F 14.8 °F 19.0 °F 78% 30.17 in 10.0 mi North 10.4 mph - N/A   Overcast
2:02 AM 24.8 °F 15.3 °F 19.4 °F 80% 30.15 in 10.0 mi North 9.2 mph - N/A   Overcast
2:54 AM 24.1 °F 15.2 °F 19.0 °F 81% 30.18 in 9.0 mi North 8.1 mph - N/A   Overcast
3:54 AM 23.0 °F 12.4 °F 18.0 °F 81% 30.18 in 8.0 mi North 10.4 mph - N/A   Overcast
4:50 AM 21.2 °F 11.7 °F 17.6 °F 86% 30.18 in 8.0 mi North 8.1 mph - N/A   Overcast
5:13 AM 21.2 °F 10.9 °F 17.6 °F 86% 30.17 in 8.0 mi North 9.2 mph - N/A   Overcast
5:54 AM 21.0 °F 8.6 °F 15.1 °F 78% 30.19 in 8.0 mi North 12.7 mph - N/A   Mostly Cloudy
6:12 AM 21.2 °F 9.5 °F 15.8 °F 80% 30.16 in 9.0 mi North 11.5 mph - N/A   Scattered Clouds
6:54 AM 19.9 °F 12.1 °F 14.0 °F 78% 30.21 in 9.0 mi NNE 5.8 mph - N/A   Clear
7:54 AM 21.0 °F 11.4 °F 15.1 °F 78% 30.26 in 8.0 mi NW 8.1 mph - N/A   Clear
10:54 AM 23.0 °F 13.1 °F 16.0 °F 74% 30.27 in 8.0 mi North 9.2 mph - N/A   Clear
11:54 AM 24.1 °F 17.0 °F 16.0 °F 71% 30.26 in 8.0 mi North 5.8 mph - N/A   Clear
1:54 PM 26.1 °F 18.4 °F 14.0 °F 60% 30.22 in 10.0 mi North 6.9 mph - N/A   Overcast
3:54 PM 25.0 °F 16.3 °F 12.0 °F 58% 30.25 in 10.0 mi NNE 8.1 mph - N/A   Overcast
4:54 PM 23.0 °F 17.0 °F 12.0 °F 63% 30.26 in 10.0 mi NNW 4.6 mph - N/A   Overcast
5:54 PM 21.0 °F 14.6 °F 15.1 °F 78% 30.26 in 10.0 mi NW 4.6 mph - N/A   Mostly Cloudy
6:54 PM 21.0 °F 12.4 °F 12.9 °F 71% 30.28 in 10.0 mi NW 6.9 mph - N/A   Clear
7:54 PM 19.0 °F 10.0 °F 12.0 °F 74% 30.27 in 10.0 mi NNW 6.9 mph - N/A   Clear
8:54 PM 17.1 °F 10.0 °F 10.9 °F 77% 30.28 in 10.0 mi NNW 4.6 mph - N/A   Clear
9:54 PM 17.1 °F - 10.0 °F 74% 30.29 in 9.0 mi Calm Calm - N/A   Clear
10:54 PM 17.1 °F 11.7 °F 10.0 °F 74% 30.31 in 9.0 mi WNW 3.5 mph - N/A   Clear
11:54 PM 15.1 °F 9.4 °F 9.0 °F 77% 30.28 in 9.0 mi WSW 3.5 mph - N/A   Clear